Theta_e
312 313 313 313 312 312 312 312 312 312 312 313 313 313 313 312 309 309 310 307 307 311 313 313 313 312 312 312 313 312 310 309 310 310 311 312 312 313 313 313 313 313 314 313 310 309 309 309 309 311 313 316 320 322 323 324 325 326 328 329 330 330 329 329 329 330 330 330 330 330 331 331 331 332 331 330 330 329 330 330 329 330 331 331 330 330
311 314 314 313 312 311 310 310 310 310 311 312 311 311 312 313 311 309 310 308 306 310 312 311 311 312 312 313 312 312 311 310 311 312 313 313 314 314 314 314 314 315 314 312 310 309 309 308 308 308 307 309 313 317 319 321 322 324 326 327 328 329 329 329 329 329 330 330 330 330 330 330 331 332 333 333 332 332 332 332 331 332 331 330 329 329
312 314 313 311 309 309 308 308 309 311 311 312 312 311 311 312 311 309 309 308 306 310 312 311 311 313 314 313 313 313 312 312 312 313 313 313 314 314 313 314 314 315 315 312 311 310 309 307 307 307 307 307 308 311 313 315 320 323 324 325 326 327 327 328 329 328 329 329 330 330 330 329 329 331 332 333 333 333 333 333 333 333 331 328 328 330
313 313 311 308 307 308 308 308 310 312 311 312 313 311 311 313 312 309 310 309 306 307 310 311 312 314 314 313 313 313 311 311 310 309 310 311 312 313 314 314 312 312 314 313 312 311 310 308 306 306 306 307 307 308 310 311 315 320 322 323 324 326 326 326 327 328 328 328 328 329 329 330 329 329 329 330 330 330 330 330 330 330 329 327 328 331
312 308 305 306 308 310 310 309 311 311 311 314 315 314 314 314 313 311 311 309 307 306 307 311 311 312 314 314 313 312 308 307 307 307 308 308 309 310 311 312 311 310 311 312 312 312 312 310 308 306 306 306 306 307 308 308 310 314 318 320 322 324 325 325 326 326 327 327 327 327 328 328 329 329 329 329 328 328 327 327 327 327 329 330 331 332
311 304 303 306 308 311 311 310 313 314 311 313 315 315 314 312 313 313 312 311 311 310 308 309 309 309 313 314 313 312 309 309 309 310 310 310 309 308 308 310 310 309 309 309 310 311 311 310 309 307 306 305 305 305 307 307 307 309 312 315 319 321 323 324 324 325 326 326 326 326 327 327 327 328 329 329 329 329 329 329 329 328 329 331 332 332
308 303 305 309 310 314 313 311 315 316 312 311 313 314 313 314 316 316 315 313 312 311 308 307 309 309 311 313 313 311 311 312 312 313 312 311 310 309 309 309 309 309 308 308 308 308 308 308 307 307 306 305 305 305 305 306 306 307 308 310 313 316 320 321 322 323 324 325 325 326 326 326 326 326 327 327 327 327 328 329 330 329 329 330 331 331
306 304 308 311 313 314 312 311 314 314 311 312 314 313 313 315 319 318 316 314 312 311 310 310 312 310 309 313 313 309 311 314 313 313 314 311 310 310 310 310 309 309 308 309 309 308 307 306 306 306 306 305 304 304 304 305 306 306 307 308 309 313 317 318 320 322 323 323 324 325 325 325 325 325 325 326 325 325 326 326 327 327 327 328 328 328
308 309 310 311 312 312 313 315 314 314 314 314 311 312 313 315 317 317 314 312 311 310 310 312 313 310 309 313 312 309 311 313 313 314 313 311 311 311 311 310 310 309 307 307 308 309 308 306 305 305 304 305 305 304 305 305 306 306 307 307 308 311 314 316 319 321 322 322 323 324 324 324 324 324 324 325 325 325 324 325 325 325 325 326 326 325
309 309 309 310 312 312 313 312 312 316 316 311 307 310 313 314 314 315 313 311 310 310 312 312 310 309 309 315 315 309 310 313 314 313 310 311 313 313 313 312 310 308 308 308 308 309 309 307 306 306 306 307 307 306 305 305 306 306 307 307 309 312 313 315 318 320 320 321 322 323 324 324 324 324 324 324 324 323 323 323 324 324 324 324 324 324
308 307 309 311 312 311 308 306 308 314 313 309 311 313 313 314 313 312 311 310 310 311 311 308 307 308 308 315 318 312 310 312 312 311 309 311 313 314 314 312 309 308 308 309 309 310 309 308 308 308 309 309 309 308 307 306 307 308 308 309 310 312 313 315 317 318 320 321 322 323 323 323 323 324 323 323 322 322 322 322 323 323 323 323 324 324
309 309 310 311 308 308 309 308 306 307 308 310 315 314 313 313 312 311 309 310 312 312 308 304 305 308 307 312 315 311 310 311 310 310 310 311 313 315 314 311 308 308 308 309 310 312 311 311 311 311 311 311 310 310 309 308 309 310 310 311 311 313 313 315 317 318 320 321 321 322 323 323 323 323 323 322 321 321 321 321 322 322 321 323 324 325
313 312 310 309 307 309 313 312 307 307 308 311 314 312 312 313 312 312 312 311 312 310 306 304 306 308 309 310 311 311 311 309 308 310 311 311 311 312 313 311 310 311 312 311 312 314 314 314 313 312 312 312 311 311 311 311 312 312 312 313 313 314 314 316 317 319 320 320 321 322 322 322 322 323 323 322 322 322 322 322 322 322 321 322 324 324
313 313 311 311 309 309 313 313 310 310 310 311 314 312 312 313 313 313 312 310 311 309 305 304 306 309 310 310 311 312 311 309 307 308 310 309 308 309 309 309 312 315 314 313 314 315 316 314 313 312 311 312 312 312 312 313 313 313 314 314 315 315 316 317 318 319 320 320 321 321 322 322 322 322 322 322 322 322 323 321 321 322 322 323 323 323
314 314 312 313 312 310 312 312 313 314 312 312 316 314 312 313 313 313 312 311 311 309 306 304 307 310 309 309 312 310 308 308 306 305 306 306 306 306 306 308 313 316 314 313 315 315 313 312 311 310 309 311 312 312 313 314 314 315 315 315 316 316 317 318 319 320 320 321 321 322 322 322 321 321 321 321 321 321 322 321 321 322 323 322 322 322
313 312 312 310 309 310 312 312 312 314 312 311 311 312 312 313 313 309 308 309 308 308 308 307 309 311 310 310 311 310 307 307 306 305 308 310 308 306 309 313 317 317 313 311 314 314 311 308 308 308 309 310 311 312 313 314 314 315 315 316 316 317 318 318 319 320 320 320 321 321 322 322 322 321 321 321 320 320 320 321 321 322 321 321 321 321
311 311 312 311 308 308 310 311 311 314 313 310 310 310 310 312 314 309 305 305 305 308 310 309 310 311 309 310 312 312 310 309 308 309 311 312 311 310 314 320 320 318 314 311 311 311 310 308 307 307 309 311 312 313 313 314 315 315 315 316 316 317 317 318 318 318 319 319 320 319 320 321 321 321 321 320 320 319 319 319 320 319 319 319 319 319
313 312 312 313 312 309 308 310 311 312 312 310 311 311 308 309 312 310 308 307 307 309 310 308 309 309 307 310 314 313 310 310 310 310 310 311 311 313 316 319 318 316 313 311 310 309 309 309 307 307 308 310 311 313 314 314 314 315 315 315 316 316 316 316 316 317 317 317 317 317 318 318 318 318 318 318 318 318 318 317 317 317 316 317 316 316
317 314 311 312 313 311 310 312 311 311 311 311 311 312 310 311 311 308 309 311 310 310 311 308 306 306 308 310 313 312 310 311 310 310 310 309 311 313 315 316 315 314 314 313 312 311 311 310 308 307 308 309 310 311 312 313 314 314 314 314 315 315 315 315 315 314 315 314 314 315 315 315 315 315 315 315 315 315 315 315 315 315 314 314 314 314
317 316 313 311 312 312 312 312 312 311 309 308 308 309 311 313 311 309 309 310 310 309 309 309 306 307 310 310 311 311 309 310 309 309 310 311 313 315 315 316 316 316 317 315 313 313 312 311 309 308 308 308 309 310 311 312 313 313 314 313 314 314 314 314 313 313 313 313 313 313 313 313 313 313 313 313 313 313 313 313 313 313 313 313 313 313
313 314 314 312 311 312 312 312 314 314 310 307 307 309 310 310 309 310 308 307 309 309 309 309 307 308 311 310 310 310 309 309 310 310 311 313 314 315 314 315 316 316 316 316 315 314 313 312 310 309 309 309 310 310 311 311 311 312 312 312 313 313 313 313 313 313 312 312 312 312 312 312 312 312 312 312 312 312 312 312 312 312 312 312 312 312
312 312 315 313 311 312 313 311 310 313 313 311 309 310 312 311 309 311 311 307 307 308 308 308 308 311 315 311 309 310 309 308 308 310 312 312 312 314 314 314 315 316 315 315 315 315 313 311 309 308 309 309 310 311 311 311 311 311 311 311 312 312 312 312 312 312 312 311 311 311 311 311 311 311 311 311 311 311 311 311 311 311 311 311 311 311
315 315 315 313 313 313 312 309 305 308 313 312 309 311 313 312 312 312 312 310 306 304 304 306 307 312 316 311 308 307 306 305 305 307 311 310 310 312 313 314 315 316 315 314 315 313 310 308 307 307 308 308 309 309 310 311 311 312 312 311 312 312 312 312 312 311 312 311 311 311 311 311 311 311 311 311 311 311 311 311 310 310 310 310 310 310
315 317 315 312 312 312 311 309 308 308 312 311 311 313 312 313 314 313 312 311 308 306 307 307 308 312 317 314 309 306 304 306 307 307 309 309 310 312 313 314 315 315 315 315 316 313 308 307 306 306 307 308 308 308 308 309 310 311 312 312 312 313 313 313 313 313 312 312 312 312 311 311 311 311 311 311 311 310 310 309 309 309 309 309 309 308
313 315 316 313 313 313 312 312 312 312 311 311 312 312 311 313 313 310 310 310 309 309 310 310 310 311 315 315 312 309 310 311 310 310 310 310 311 312 313 314 314 315 316 315 317 318 315 312 308 306 306 308 309 309 309 310 310 310 311 311 312 312 312 313 313 312 312 312 312 312 311 312 311 311 311 310 310 309 309 308 308 308 308 308 308 308
313 316 315 314 315 316 315 315 315 315 312 311 313 312 311 312 312 311 310 309 310 311 310 310 311 310 311 312 311 311 312 311 309 310 311 310 311 313 313 313 313 315 317 316 318 322 319 314 307 304 306 308 309 309 310 311 311 310 310 311 312 312 312 312 312 312 311 311 311 311 311 310 310 310 310 309 309 308 308 308 308 308 307 307 307 308
317 317 314 313 315 315 315 316 317 318 315 314 316 316 313 312 313 314 312 310 312 311 310 312 313 312 310 309 310 310 311 311 310 310 310 309 311 313 313 313 313 314 315 313 313 316 318 316 309 304 305 308 308 309 310 310 311 310 310 311 312 311 311 311 311 311 311 311 310 310 310 309 309 310 309 309 308 308 308 307 307 307 307 307 307 307
317 315 313 315 315 314 315 317 317 318 317 316 317 317 314 312 312 314 313 313 314 312 310 312 314 313 311 310 312 312 312 313 311 309 309 309 310 312 311 311 312 312 314 313 313 315 317 318 313 305 304 307 308 308 309 309 309 309 310 310 311 311 311 311 311 310 310 310 310 309 309 309 309 309 309 308 308 307 307 307 307 307 306 306 306 306
315 312 314 316 315 315 317 318 318 317 316 316 317 315 313 312 312 313 314 314 314 313 312 313 315 314 312 311 313 314 313 313 312 311 311 310 310 311 309 310 312 313 315 315 314 315 314 314 313 307 304 305 306 307 308 308 308 308 309 310 310 310 310 310 310 310 309 309 309 309 308 308 308 308 308 307 307 307 307 306 306 306 306 306 305 305
314 312 316 315 313 315 317 316 316 316 315 316 317 316 313 312 312 313 313 314 314 314 314 316 318 316 311 311 313 314 313 312 311 311 313 313 312 311 310 311 312 312 313 312 309 309 309 309 308 305 303 304 304 305 307 306 307 307 308 308 309 309 309 309 309 309 308 308 307 307 307 307 306 306 306 306 306 305 305 305 305 305 304 304 304 304
311 314 316 312 311 313 314 313 313 313 314 314 316 315 312 312 313 312 313 314 314 314 314 315 318 315 311 311 312 313 312 310 311 312 313 314 314 313 312 311 310 309 310 309 307 306 305 305 305 303 302 303 303 304 305 304 305 305 306 306 307 307 307 307 307 307 306 306 305 305 305 305 305 305 304 304 304 304 304 304 304 304 304 304 303 303
310 313 313 311 311 312 311 311 312 313 313 313 313 313 312 312 312 312 313 314 314 314 314 314 315 313 311 311 312 312 311 310 311 313 313 313 314 314 312 310 309 309 309 308 307 306 305 304 303 302 302 301 301 301 302 302 303 303 303 304 305 305 305 305 305 304 304 303 303 303 303 303 303 303 303 304 304 304 304 304 304 304 304 304 303 303
311 312 312 311 312 313 310 309 313 314 312 311 312 313 312 312 312 312 313 314 314 314 314 314 313 312 311 310 310 311 312 312 312 313 313 314 314 313 311 309 309 309 308 307 307 307 306 303 301 301 300 300 300 300 300 300 301 301 301 302 302 303 303 303 303 303 302 302 302 302 302 302 303 303 303 303 303 304 304 304 304 304 304 304 303 303
313 312 311 311 312 312 308 309 313 312 310 311 313 314 313 313 313 313 313 312 312 312 312 313 312 312 312 310 310 311 312 311 312 312 313 314 314 313 312 311 311 310 308 307 307 306 304 301 300 300 299 298 299 299 299 299 299 300 301 301 301 302 302 302 302 302 301 301 301 301 302 302 303 303 303 303 303 303 303 303 303 303 303 303 303 302
313 312 310 310 311 309 306 309 312 311 311 314 315 314 312 311 311 312 313 311 311 311 312 312 311 311 311 310 311 312 310 311 314 314 313 312 312 313 313 312 311 310 308 307 306 304 302 300 300 299 298 298 299 299 299 300 300 300 301 301 301 302 302 302 301 301 301 300 301 301 302 302 303 303 303 303 303 303 303 303 302 302 302 302 302 302
311 311 309 308 308 307 306 309 312 311 312 315 314 311 310 310 310 312 313 312 310 311 311 311 310 311 311 310 310 311 311 312 313 313 313 313 310 309 309 309 308 307 306 304 303 302 299 298 298 298 297 298 299 299 300 300 300 301 301 301 302 301 301 301 301 300 300 300 300 301 301 302 302 302 302 302 302 302 302 301 301 301 301 301 302 302
310 310 310 308 308 308 308 309 311 312 312 314 314 310 309 310 310 311 312 312 310 310 310 310 310 310 310 310 309 309 310 310 310 310 313 311 306 304 303 303 303 303 301 299 298 297 296 296 297 297 297 298 298 299 299 299 300 301 301 301 301 301 301 301 300 299 299 299 299 300 300 300 301 301 301 301 301 301 301 300 300 300 300 300 301 301
310 311 312 311 309 308 308 309 310 311 312 312 314 312 310 310 311 311 311 312 311 310 309 310 310 310 310 311 311 310 309 309 309 311 311 305 301 300 299 298 298 297 297 296 296 295 295 296 296 296 297 297 297 297 298 299 300 301 301 300 300 300 300 299 298 297 297 297 298 298 298 299 299 299 300 300 300 300 300 300 300 299 299 299 299 300
313 313 313 312 310 308 309 310 310 311 312 313 316 314 310 309 311 311 310 311 312 311 310 309 309 310 310 311 311 310 309 309 310 312 307 299 297 298 297 296 295 295 294 295 295 295 294 294 295 295 296 296 295 295 296 297 298 299 299 297 298 298 297 296 295 295 296 296 296 297 297 297 298 298 298 298 298 298 299 299 298 298 298 298 298 298
311 311 310 310 310 309 309 311 311 310 312 317 318 314 309 308 310 311 312 313 313 313 311 310 309 310 310 311 309 309 309 311 313 310 301 296 297 297 296 295 295 294 293 293 293 293 293 293 294 294 293 292 292 293 295 296 297 297 296 294 295 294 292 292 292 293 294 295 295 296 296 296 296 296 296 296 296 297 297 297 297 297 297 297 297 297
311 310 310 310 311 311 310 311 311 310 315 321 318 310 307 309 311 313 314 314 315 314 312 310 309 310 310 310 309 308 309 310 308 302 296 295 296 295 294 294 293 292 292 291 291 291 291 292 291 291 290 290 291 293 294 295 295 294 293 292 291 290 289 290 291 292 293 294 294 295 295 295 295 295 295 295 295 295 296 296 296 296 296 296 297 296
314 313 313 311 311 311 311 311 312 312 316 319 312 306 308 312 312 313 314 312 312 313 312 309 309 310 310 309 310 309 305 300 298 297 295 296 295 293 293 293 292 291 290 289 290 290 290 290 289 288 288 289 291 292 292 293 293 292 290 289 287 287 288 290 291 292 293 294 294 294 295 295 294 294 294 294 294 294 295 295 295 295 295 295 295 296
316 315 315 313 313 313 312 312 313 314 314 313 308 306 308 312 312 314 315 309 306 309 312 311 309 309 310 309 308 304 299 296 296 296 295 294 293 292 292 292 291 290 289 288 288 288 289 289 288 287 287 287 288 289 290 290 290 288 286 285 284 285 287 288 290 291 292 293 294 294 294 295 295 294 294 294 294 294 295 295 295 295 294 294 294 294
314 316 316 315 314 314 313 313 315 315 312 310 311 311 310 310 311 312 315 314 307 304 307 310 307 305 306 306 302 298 297 296 295 294 293 292 292 291 291 290 290 289 288 287 287 286 287 288 287 286 285 285 286 286 287 287 286 284 283 282 282 284 286 288 289 291 291 292 293 294 294 295 295 295 295 294 294 294 294 294 294 294 294 294 293 293
314 315 316 317 316 314 314 315 315 314 310 306 308 311 310 308 306 306 311 315 310 303 303 306 305 301 300 300 299 297 296 295 294 293 292 291 290 290 289 289 288 287 287 286 285 285 285 286 286 286 285 284 284 284 284 284 284 282 281 281 282 284 285 287 288 289 290 291 292 292 293 294 294 295 295 294 294 294 293 293 293 293 293 293 292 292
314 314 315 316 316 314 315 314 311 309 309 306 302 301 303 303 302 303 307 311 308 302 300 301 301 298 298 298 298 296 295 294 293 292 291 290 289 288 288 287 286 285 285 284 284 284 284 284 284 284 284 283 282 282 281 281 282 281 279 280 281 283 284 285 287 288 289 290 290 291 291 292 293 293 294 294 294 293 292 290 289 289 289 290 290 290
313 312 314 315 315 314 315 316 311 307 308 306 302 300 301 301 300 300 304 305 302 299 298 298 298 297 297 298 297 295 294 293 292 290 289 288 288 287 287 286 284 283 283 282 282 282 283 283 283 283 283 282 280 280 279 279 279 279 279 280 281 281 283 283 284 285 287 287 288 289 289 289 290 291 291 292 292 290 289 288 286 286 286 287 288 288
312 312 314 315 315 314 315 312 305 302 302 302 302 303 303 302 300 299 299 299 297 296 296 297 297 297 297 296 296 295 293 292 291 290 289 287 287 286 285 284 283 282 281 280 281 281 281 282 281 281 282 281 279 278 279 278 277 277 279 279 280 281 282 283 283 283 285 285 286 286 287 287 287 288 288 288 288 287 287 287 287 286 286 287 287 287
311 311 313 314 314 313 312 307 303 303 304 303 302 303 301 299 298 297 295 295 295 295 295 295 294 295 296 294 293 293 293 291 290 289 288 286 285 285 283 282 281 280 280 279 279 280 280 280 279 279 279 279 277 277 277 276 275 276 278 279 280 280 281 282 282 283 283 284 284 285 285 286 286 287 286 285 285 285 286 287 286 286 286 288 288 287
310 310 311 312 312 311 312 310 307 309 312 309 305 302 299 295 295 295 294 294 294 294 294 294 291 290 291 291 291 291 290 289 288 288 286 284 283 282 281 281 280 278 278 278 278 278 279 278 277 277 278 277 276 276 276 275 274 274 276 278 278 279 279 279 280 281 282 282 283 283 283 283 284 284 284 282 282 283 284 286 287 286 286 287 287 287
309 310 309 310 311 311 311 310 307 309 313 312 307 301 297 294 295 295 295 294 293 292 292 292 291 289 288 287 287 288 288 287 287 286 283 282 281 280 278 278 278 277 277 277 277 277 277 276 276 276 276 275 275 275 274 273 271 272 273 274 275 276 277 277 277 277 278 279 279 279 278 278 278 279 279 279 279 280 281 283 285 286 286 286 286 286
Wind_Speed
1 4 6 6 8 9 8 4 1 3 4 6 5 2 2 4 3 1 2 3 1 3 6 7 8 10 11 11 10 4 2 5 8 8 8 7 7 6 7 7 7 9 8 7 11 16 17 20 22 24 26 28 29 31 32 32 33 32 28 25 24 23 21 22 22 21 22 25 24 22 23 25 27 28 29 32 31 29 30 33 35 34 28 26 30 31
2 6 6 4 4 6 6 4 5 5 4 5 6 4 2 2 1 2 1 3 2 3 2 0 6 12 13 12 11 7 6 9 10 10 11 10 8 6 7 9 8 7 5 4 8 11 14 18 19 20 22 23 25 28 31 33 34 35 33 30 28 24 22 23 23 22 22 25 27 25 24 22 22 23 24 27 29 28 29 31 33 32 25 22 25 27
4 6 3 4 5 7 6 4 5 5 4 4 3 4 4 2 2 2 1 3 2 2 1 1 5 11 12 11 11 10 9 9 9 9 9 8 8 6 6 7 7 7 5 5 7 9 12 16 16 17 19 22 24 25 28 31 32 32 32 34 32 28 25 23 22 23 23 22 24 24 22 21 20 20 21 21 22 21 22 23 26 27 25 25 26 26
5 3 3 6 7 9 6 2 5 6 3 2 3 4 3 2 3 2 3 3 2 1 1 1 4 9 9 9 10 9 6 6 6 8 8 7 8 7 6 5 5 8 7 6 7 9 10 11 13 17 20 22 24 25 26 28 30 30 31 34 34 32 31 26 22 24 22 19 20 20 19 20 20 22 23 23 23 22 21 22 24 28 29 32 32 27
3 2 2 6 6 8 7 4 6 6 3 1 2 3 2 4 3 1 4 5 1 1 1 2 5 8 5 7 9 4 1 4 5 6 9 8 8 8 7 7 8 9 8 7 8 8 8 8 10 15 19 22 23 26 28 29 30 31 31 32 32 32 33 30 24 21 20 20 20 20 21 22 21 22 22 24 27 29 29 28 30 31 30 30 32 29
1 2 2 7 4 4 6 6 6 6 5 2 4 3 2 6 6 4 6 5 3 3 1 1 5 5 1 4 7 1 2 5 3 4 8 6 6 7 7 8 8 8 8 9 9 8 8 8 9 11 16 20 23 26 28 29 29 29 29 29 30 30 30 31 26 19 19 23 24 23 25 25 23 22 22 25 28 29 30 30 30 30 28 27 27 27
2 1 1 5 6 5 5 6 4 4 5 3 3 3 4 6 7 8 7 4 2 2 1 1 5 4 1 3 3 1 5 6 4 6 7 4 4 5 5 5 5 5 6 6 8 8 8 8 8 10 14 18 21 23 24 25 25 25 26 27 29 29 28 28 24 18 19 23 24 26 26 25 24 22 23 25 25 24 25 27 27 26 27 29 28 27
3 3 1 4 5 5 6 5 5 6 5 2 1 3 7 7 8 8 7 3 0 1 1 1 2 4 5 3 1 1 5 6 6 7 5 3 4 4 3 4 4 4 4 4 6 7 7 7 8 9 10 12 15 18 19 20 21 23 24 25 26 27 27 26 21 17 19 21 22 23 25 24 22 21 21 20 19 19 20 22 23 24 25 28 29 30
3 4 5 6 5 5 5 1 3 7 3 0 1 2 5 6 6 6 5 2 1 1 4 2 2 4 5 2 1 1 4 5 7 6 4 3 3 2 2 3 3 3 4 4 5 6 6 6 7 8 8 8 10 13 16 18 18 19 21 23 24 23 25 24 19 17 20 21 20 19 21 22 21 20 19 16 15 16 16 18 19 20 21 22 23 27
1 2 3 4 5 4 2 3 1 2 1 3 5 5 6 5 5 3 2 3 2 3 5 2 2 4 5 2 2 0 2 6 6 3 2 2 2 1 2 2 2 2 2 3 4 5 5 5 5 6 6 6 7 10 13 15 16 17 18 20 22 21 22 22 18 19 21 21 19 18 19 20 19 19 17 15 16 15 14 16 16 16 18 20 23 25
1 0 1 0 1 2 4 4 3 2 4 8 7 7 8 4 3 2 1 1 2 4 2 2 2 3 4 2 3 2 2 3 3 1 3 2 2 2 2 2 2 2 2 2 3 3 2 2 2 3 3 4 6 8 11 13 14 14 15 17 19 19 20 19 18 20 21 20 19 19 19 19 18 17 16 17 18 17 17 18 16 16 19 22 24 25
2 2 1 1 1 2 4 5 5 3 4 4 3 6 7 3 1 2 1 0 4 4 1 2 2 3 5 3 1 1 2 2 2 2 5 4 2 2 2 2 2 3 3 3 2 1 2 3 3 3 3 4 5 7 9 11 12 12 13 15 17 18 19 19 18 20 20 20 20 19 18 18 18 16 15 16 17 17 18 19 16 15 17 21 24 24
3 2 1 2 1 3 3 5 5 1 2 2 4 8 6 3 3 3 2 2 5 2 2 1 1 3 7 6 5 7 6 4 4 3 3 2 3 3 3 2 2 3 2 2 2 0 2 3 3 3 3 5 6 7 9 10 11 12 14 15 17 18 18 18 19 20 20 20 22 21 19 17 16 15 14 14 15 15 15 16 15 14 16 20 23 24
2 1 1 3 2 3 3 5 5 4 5 5 7 7 6 5 4 5 3 1 3 0 2 0 1 3 5 5 7 11 6 1 2 5 4 4 6 6 5 5 4 4 2 2 2 1 0 2 3 3 3 5 6 8 9 10 11 13 14 15 16 16 17 18 19 20 20 20 21 22 21 17 14 14 14 13 13 14 14 13 15 18 20 22 23 23
5 3 3 4 2 2 3 2 1 4 5 3 1 2 5 4 3 5 3 2 2 2 2 1 2 3 2 0 3 6 3 2 3 4 4 5 6 6 5 5 5 3 2 2 2 2 1 1 2 3 4 6 8 9 10 11 12 12 13 15 15 14 15 16 17 18 19 18 19 21 21 19 16 14 14 13 12 13 13 14 17 22 23 24 24 23
3 1 1 0 1 1 2 2 2 4 4 1 1 1 3 2 2 2 1 0 1 1 2 3 3 3 2 4 3 2 3 3 3 3 3 5 4 3 4 4 3 1 1 1 2 2 2 2 1 3 5 6 8 9 10 11 11 12 12 13 13 12 13 13 14 15 15 16 16 18 19 20 20 19 18 16 14 14 15 17 21 22 22 23 23 23
2 1 2 1 0 1 1 1 2 1 2 2 2 3 2 1 4 4 1 1 1 3 2 2 3 2 2 5 2 0 2 2 2 2 3 3 2 2 3 2 1 1 1 1 1 1 1 1 1 3 5 6 8 9 9 9 10 10 11 11 12 12 12 12 13 13 13 14 14 15 16 18 19 20 20 18 17 17 17 19 20 18 19 22 22 22
3 3 2 2 2 2 2 1 1 2 1 2 3 5 3 1 1 1 1 1 0 4 2 1 4 3 1 3 2 1 2 3 2 2 1 2 2 2 2 1 1 2 2 2 1 1 0 1 2 3 5 6 8 9 9 9 9 9 10 11 11 11 11 11 11 11 11 12 13 13 14 15 16 17 18 18 18 19 19 20 20 18 19 21 20 20
1 3 2 1 0 1 1 1 2 2 1 0 1 3 2 2 2 2 2 2 2 3 2 1 2 3 4 5 1 1 3 2 2 2 2 3 3 2 1 0 1 2 1 1 2 2 2 2 3 3 5 6 8 9 10 11 10 10 10 10 11 11 10 10 9 9 10 10 12 12 12 13 14 14 15 17 18 19 21 21 21 21 21 20 19 19
1 1 2 1 1 1 1 2 4 4 2 2 1 2 0 1 2 2 2 1 3 3 2 1 1 3 5 5 3 4 3 1 2 3 4 4 3 2 1 0 1 1 2 3 3 3 3 4 4 3 5 6 8 9 10 11 11 10 10 10 10 10 10 9 9 9 10 10 10 11 11 11 12 13 14 15 17 19 20 21 21 21 21 20 20 19
1 1 2 2 1 2 2 2 4 4 4 3 4 5 3 1 1 1 1 1 1 2 2 2 2 2 2 3 5 5 2 2 2 2 3 4 2 2 1 1 2 2 3 3 3 3 3 4 5 5 5 6 7 8 9 10 10 10 10 9 9 9 9 9 9 9 10 10 10 10 11 11 12 13 13 14 16 17 19 19 19 19 20 20 21 20
1 1 4 4 2 3 2 1 2 1 0 2 3 5 6 4 3 4 3 1 0 1 2 1 3 3 1 2 3 2 1 2 2 1 2 3 3 4 3 3 2 2 3 2 2 1 2 3 4 4 4 5 6 7 8 8 9 9 9 9 9 9 9 9 9 9 9 9 10 10 10 11 11 11 12 13 13 15 16 16 17 17 18 20 21 20
1 3 4 3 2 2 2 1 1 1 1 1 2 2 3 3 4 5 5 3 3 1 1 1 2 3 0 1 1 1 2 2 1 2 2 2 4 4 4 4 2 2 2 1 0 1 1 0 1 2 3 4 5 5 6 6 7 7 7 7 7 7 7 7 7 7 7 7 8 8 9 9 9 9 10 10 11 13 13 14 15 16 17 18 18 18
1 3 4 2 1 1 2 0 1 0 1 2 3 2 2 2 2 1 2 3 4 4 3 2 3 4 0 1 1 2 3 4 3 3 3 2 2 4 4 4 3 2 1 1 1 1 1 0 2 4 5 4 4 5 5 5 5 5 5 4 3 3 4 5 6 6 6 7 7 7 7 7 7 8 9 10 11 12 12 13 14 14 16 16 17 17
3 3 5 4 3 1 1 2 2 2 3 4 2 2 2 2 4 3 1 2 2 5 5 4 6 4 0 1 1 1 2 4 3 3 3 3 3 4 4 3 2 1 1 0 1 1 2 4 5 7 8 7 6 6 6 5 5 4 3 2 2 1 1 2 4 5 5 6 7 7 6 7 8 9 10 10 11 11 11 12 13 13 14 15 15 16
4 4 6 6 6 5 5 6 6 5 4 2 2 3 5 7 7 4 2 2 4 4 5 6 7 2 1 1 1 2 2 4 4 3 3 3 3 4 3 3 2 2 2 0 1 2 2 3 5 8 7 6 6 6 5 4 3 2 2 1 1 1 2 3 3 3 4 5 6 6 6 7 8 9 9 10 10 10 10 10 11 12 12 13 14 15
2 2 5 9 9 9 10 11 9 6 6 7 8 7 9 10 8 4 3 3 5 4 4 10 9 2 0 3 4 4 3 4 4 4 4 5 5 4 3 2 2 3 2 2 1 1 2 2 3 5 4 2 3 4 4 4 5 4 3 3 3 3 4 4 4 4 4 5 5 5 5 6 6 7 7 7 7 7 8 8 8 9 9 10 12 12
3 3 7 10 11 9 7 6 6 8 9 13 13 10 9 9 8 7 7 7 4 5 5 12 10 6 5 6 6 5 5 4 5 6 7 6 6 4 2 2 3 4 3 2 2 2 2 2 2 3 1 1 1 4 5 6 6 5 4 4 3 4 5 5 5 4 3 3 3 3 3 3 3 3 3 4 4 4 4 5 5 6 7 8 9 10
4 6 6 8 11 8 1 3 5 8 7 8 10 12 12 12 11 12 13 10 8 6 13 14 12 12 10 7 6 6 5 6 5 4 3 2 3 3 3 3 4 4 3 2 1 1 1 1 3 2 2 3 4 5 6 7 7 6 5 4 4 4 5 4 3 2 2 2 2 1 1 0 0 1 1 1 2 2 3 3 4 5 6 7 8 9
4 6 4 6 11 8 2 3 4 6 5 3 6 10 13 13 15 16 16 15 12 12 16 11 7 9 9 8 7 5 3 2 1 1 1 3 4 5 5 5 5 4 3 3 2 2 4 4 3 4 4 4 5 6 7 7 6 4 3 3 3 3 3 3 3 3 4 4 4 3 3 3 3 3 3 3 3 4 4 5 5 6 6 6 7 8
2 4 4 5 7 6 3 3 1 3 5 4 3 5 9 11 13 15 16 15 13 14 16 9 4 7 6 7 6 2 3 2 0 2 4 4 5 5 5 5 6 5 4 4 6 8 7 5 3 3 3 3 5 6 6 5 3 2 2 2 3 4 5 6 7 7 7 6 6 5 5 5 5 5 5 6 6 7 7 7 8 8 8 8 8 9
3 2 3 4 5 5 2 4 4 4 2 2 3 7 11 11 11 13 14 14 13 14 16 12 9 9 6 7 5 4 2 3 5 6 6 6 6 6 6 6 5 5 5 5 7 7 5 5 3 2 2 3 4 5 4 3 3 4 4 4 5 7 9 10 10 10 9 9 8 7 8 7 8 8 8 8 8 9 9 10 10 10 10 11 11 11
5 5 3 5 8 5 0 3 6 6 2 3 6 11 15 15 15 14 12 12 13 13 13 11 9 5 7 9 7 6 5 5 7 8 7 7 7 6 6 7 6 4 3 1 1 2 5 4 3 3 5 5 6 6 5 5 5 5 6 8 9 10 12 12 12 12 11 11 10 9 9 9 9 9 9 10 10 10 11 11 11 12 12 13 13 14
5 7 4 4 6 2 1 3 6 4 7 9 7 12 17 16 15 13 11 12 12 10 9 8 5 3 8 9 11 9 9 10 9 8 5 3 4 4 5 4 3 1 1 2 2 3 4 3 4 7 8 9 8 8 7 7 7 8 10 11 13 13 14 14 14 13 12 12 11 11 10 10 10 10 10 10 11 11 11 12 12 12 13 13 14 15
7 7 3 2 2 1 2 4 6 7 10 6 2 6 12 14 13 13 14 15 14 12 11 12 10 6 8 9 8 9 11 10 6 4 3 1 2 4 5 3 1 1 1 2 2 3 3 3 6 9 10 10 9 9 9 9 10 11 13 14 14 14 14 14 13 13 12 12 12 12 12 12 12 12 12 12 12 13 13 13 14 14 15 15 16 17
8 6 3 2 2 3 3 6 8 6 4 1 2 1 6 9 10 11 13 13 12 11 11 14 16 13 9 8 5 4 4 2 1 3 3 1 1 2 3 2 0 1 2 3 3 3 4 5 8 10 10 11 10 10 11 12 12 13 14 14 14 13 13 12 13 13 13 13 14 14 14 14 14 14 15 15 15 16 16 16 17 17 17 18 18 19
6 6 4 3 3 2 3 6 4 4 4 5 4 2 5 8 10 11 10 10 10 12 12 14 17 15 10 8 6 2 1 2 3 5 3 1 1 1 1 2 3 4 5 6 6 7 9 10 12 12 13 13 13 13 13 13 13 13 14 13 13 12 12 12 13 15 15 15 16 15 15 16 16 17 18 18 18 19 19 19 19 19 19 20 21 22
3 3 4 5 3 2 3 3 2 4 9 9 4 3 5 7 10 12 9 8 10 14 14 15 16 14 9 7 7 5 4 1 7 7 3 4 3 4 5 6 6 7 7 7 9 11 13 14 14 14 15 15 15 14 14 13 12 12 13 13 13 12 13 14 15 16 17 17 17 17 17 17 18 18 19 20 20 20 21 21 21 21 20 21 23 24
3 1 2 4 3 3 4 5 5 8 9 4 5 5 6 7 9 9 5 8 9 10 12 14 14 11 10 7 7 8 6 5 9 5 4 6 5 6 7 7 8 8 9 10 11 12 14 15 16 16 17 17 16 14 12 12 12 12 13 14 13 14 15 16 17 17 17 18 18 18 18 18 18 19 20 20 20 20 21 21 21 21 21 22 23 24
3 2 2 5 5 4 6 5 4 5 5 2 5 4 5 10 12 10 5 8 5 8 10 12 12 12 11 8 8 9 8 7 6 3 6 8 7 7 7 8 8 8 9 11 13 14 15 16 17 17 18 17 15 13 12 12 12 13 14 14 15 16 17 17 18 18 17 18 18 18 18 18 18 19 19 20 20 20 20 21 21 21 21 22 22 23
3 2 4 7 6 6 7 5 4 4 4 4 4 3 8 11 10 8 8 4 3 6 6 9 13 13 10 8 7 6 5 2 3 7 9 9 9 9 9 9 10 10 11 11 13 15 16 17 17 17 17 16 14 13 13 12 12 14 14 15 16 18 18 17 17 17 18 18 18 18 18 18 18 18 18 18 19 20 20 20 21 21 21 22 23 24
5 4 3 6 6 4 4 4 4 5 3 4 4 2 6 8 6 7 5 1 2 2 1 3 8 7 5 6 5 3 4 6 8 10 10 9 9 9 9 9 10 11 11 11 12 13 13 14 16 16 16 15 14 14 13 12 13 14 14 15 17 17 16 16 17 17 18 18 18 19 19 19 19 19 19 19 19 21 21 21 21 22 22 22 23 24
7 6 4 5 5 3 3 5 5 5 2 8 9 3 4 4 3 2 2 2 1 1 2 1 2 1 3 4 4 6 9 9 9 10 9 8 9 9 8 8 9 9 9 9 10 11 11 11 12 14 14 14 14 14 14 13 13 14 14 15 16 16 16 17 17 17 18 18 19 19 19 20 20 20 20 20 21 22 23 23 23 23 22 22 23 25
7 7 4 5 5 4 5 8 5 2 3 5 6 4 4 2 0 1 2 2 1 2 2 2 1 1 3 6 8 9 10 10 9 9 9 8 8 8 8 8 8 8 9 9 9 11 11 10 10 11 13 14 13 14 15 14 14 14 14 15 16 17 17 18 18 18 19 19 19 20 20 20 20 20 20 21 22 23 23 23 23 23 23 22 22 24
6 6 4 4 5 4 4 5 3 1 2 1 1 0 2 1 1 1 2 2 2 3 3 2 3 4 5 9 11 10 9 9 9 8 9 8 7 7 8 8 8 8 8 9 9 11 12 12 10 10 12 13 14 14 15 14 13 14 14 15 16 17 18 19 19 19 19 20 20 20 21 21 21 21 21 21 22 23 24 24 23 23 22 22 22 22
1 1 2 3 3 1 3 3 2 1 1 1 0 1 2 2 1 2 1 1 2 3 3 3 6 8 9 10 11 9 8 9 9 8 8 8 7 7 7 8 8 8 8 8 9 9 10 10 10 9 10 12 13 14 14 13 12 13 14 15 17 18 18 18 19 19 19 20 20 20 21 22 23 23 23 23 23 23 22 21 20 20 20 21 21 21
1 1 2 2 3 4 5 4 3 2 1 1 0 1 2 1 1 2 2 0 2 4 4 5 7 9 9 9 11 11 10 10 10 9 7 7 7 6 7 7 7 8 8 8 9 7 7 8 8 8 8 9 11 13 13 12 10 12 14 16 17 18 19 19 20 20 20 21 21 21 22 23 24 24 24 24 23 22 21 19 17 17 18 19 21 21
2 3 2 2 4 4 4 1 2 0 2 2 2 2 2 2 1 2 2 2 5 6 6 5 6 8 8 7 10 13 11 9 9 9 7 6 6 6 7 7 7 7 8 8 9 9 8 9 8 8 7 8 9 12 13 12 11 13 16 18 19 20 21 21 22 22 22 22 22 23 23 24 24 25 25 25 23 22 21 21 20 20 19 18 18 18
3 4 4 4 4 1 3 1 1 1 3 4 6 5 3 3 4 5 4 4 6 7 7 6 4 4 7 8 9 11 11 8 8 9 8 7 6 6 7 7 7 7 7 7 8 9 9 9 8 8 7 6 9 12 14 14 13 14 18 19 20 21 21 22 22 22 22 22 23 23 24 24 25 25 25 25 24 23 22 22 21 22 24 23 20 18
4 5 3 3 4 3 5 5 5 4 4 5 7 7 6 6 7 8 7 6 6 7 9 9 7 5 6 7 8 10 10 8 8 9 8 7 7 7 7 8 7 6 6 6 7 8 9 9 8 7 6 6 10 13 15 15 14 15 17 18 18 19 20 21 22 22 21 22 22 22 23 24 24 25 25 25 24 24 25 26 24 22 23 26 25 22
4 5 6 5 6 6 6 7 9 7 5 3 5 8 9 8 9 10 10 9 8 8 8 10 10 8 6 5 5 7 9 9 10 10 8 7 8 9 8 7 7 7 6 6 6 6 7 7 7 7 6 6 11 14 14 13 12 14 17 17 18 18 19 19 20 21 21 21 21 21 21 22 22 23 22 21 21 20 21 25 28 27 25 25 25 25
Wind_Direction
179 163 186 193 180 180 183 189 80 89 154 154 142 136 155 176 170 117 93 54 0 222 223 233 253 266 265 263 264 247 190 251 262 259 255 245 236 232 231 234 229 232 241 244 249 248 242 239 238 237 237 237 236 237 235 233 232 229 223 218 219 219 217 218 219 220 220 220 221 221 224 227 230 232 231 232 233 237 242 241 240 239 238 245 247 243
211 198 195 183 150 147 144 118 93 95 117 143 162 166 172 215 136 83 82 72 48 239 218 225 266 262 259 263 265 250 232 245 246 247 250 245 237 226 226 233 232 233 235 230 241 243 239 239 237 234 234 232 231 234 234 233 233 232 226 222 221 217 214 217 216 216 218 221 222 221 223 225 227 228 226 227 230 234 236 236 236 236 236 242 246 245
200 211 168 118 106 96 91 103 114 97 108 140 160 168 177 181 129 104 103 86 61 247 238 70 264 264 260 261 262 246 236 239 236 240 249 250 243 231 225 231 236 243 236 218 227 233 233 237 236 233 233 232 232 232 233 233 232 229 226 225 225 221 217 218 216 216 218 220 223 225 228 228 227 227 224 222 225 228 229 230 232 232 237 248 249 248
187 217 113 126 140 125 108 118 124 107 115 139 137 165 173 147 166 190 153 125 55 330 325 317 269 275 263 253 253 242 238 254 256 255 256 253 248 246 248 253 250 249 248 231 232 236 230 232 235 235 236 236 234 231 232 233 230 226 226 227 226 224 223 220 218 218 218 219 222 225 229 231 230 233 232 231 233 236 237 237 238 241 247 250 247 246
157 6 108 140 157 149 137 155 163 163 176 213 195 173 135 162 191 10 116 131 114 173 320 302 271 271 249 239 246 227 212 262 257 254 250 239 236 246 263 265 252 249 258 257 248 245 235 229 233 237 239 238 236 235 234 234 230 227 227 228 226 226 225 223 221 220 218 218 220 221 223 227 231 234 235 234 236 239 239 241 242 244 247 246 242 243
100 0 167 143 146 152 147 168 191 196 184 204 227 195 140 168 157 100 126 145 183 199 134 324 261 257 190 232 239 218 336 254 218 232 245 229 209 221 239 246 241 241 252 257 259 261 256 245 238 239 241 240 239 238 237 235 233 232 230 230 228 226 226 225 223 219 215 215 217 217 216 219 222 226 227 227 231 233 233 235 236 239 244 243 239 242
101 41 201 145 145 147 160 183 196 203 188 194 220 160 124 141 135 135 155 169 210 202 95 326 252 255 276 236 210 17 299 271 242 233 237 227 213 212 220 231 231 237 243 250 257 261 261 254 244 241 242 243 242 241 240 237 236 235 233 232 230 228 227 224 220 214 211 213 215 217 216 217 220 224 229 231 233 234 234 235 235 236 241 241 239 243
114 122 156 133 137 147 172 189 186 193 188 175 203 130 129 138 142 148 158 176 301 80 141 152 278 271 269 248 122 338 276 269 258 238 219 212 222 210 216 235 236 241 248 253 260 260 258 250 242 244 248 248 243 239 238 234 232 232 231 230 230 227 225 222 216 208 208 210 212 216 218 221 223 226 232 236 235 235 235 237 238 237 238 240 241 245
97 160 174 147 149 172 182 183 175 184 180 158 220 116 122 125 128 140 147 142 63 250 209 142 30 266 256 234 117 332 272 257 251 228 189 183 191 190 234 251 253 255 256 255 261 266 260 248 245 250 256 253 240 231 227 224 225 228 227 227 226 224 223 221 213 206 209 211 211 212 216 220 224 227 232 235 234 233 233 235 236 236 236 237 241 244
38 194 196 160 170 174 130 35 339 212 108 143 154 106 95 91 88 106 131 126 121 244 224 126 30 263 258 232 171 87 267 250 248 211 165 194 192 230 259 270 282 278 267 256 261 267 261 250 247 247 247 243 231 219 213 212 216 220 220 220 219 218 219 217 211 210 213 211 209 210 213 216 221 225 228 231 231 229 229 233 234 234 236 239 244 246
314 278 318 348 168 139 107 70 19 350 111 143 154 112 98 86 70 83 52 87 189 239 218 75 4 278 269 252 190 201 243 243 258 154 152 199 221 228 238 272 307 314 308 296 281 261 238 211 199 193 194 205 207 199 195 199 202 207 211 212 212 213 215 214 212 214 214 210 209 211 214 216 219 223 225 227 229 229 231 234 236 237 241 245 246 247
94 108 166 75 62 145 119 83 48 47 131 146 169 134 117 95 90 124 82 167 226 227 108 48 330 252 241 246 176 270 281 248 255 161 148 169 207 228 234 275 311 320 314 311 306 189 143 133 122 122 137 157 175 176 177 184 188 193 199 202 205 209 212 213 213 213 211 209 211 214 215 218 220 222 225 228 230 231 233 236 237 238 242 246 246 246
108 99 76 77 203 223 153 106 80 73 218 207 167 157 150 136 155 191 184 208 233 230 67 27 294 238 244 260 275 273 263 225 230 236 197 218 275 284 301 322 317 312 305 307 309 323 119 116 108 109 123 139 157 166 169 174 178 185 190 193 199 205 207 209 210 210 210 213 216 217 218 220 224 225 227 231 233 234 235 237 235 233 239 246 248 248
145 149 166 146 175 229 201 147 141 179 203 191 168 168 171 151 164 196 180 232 258 274 58 301 261 250 256 267 257 256 265 134 220 251 258 271 280 288 308 318 306 302 308 313 310 309 56 102 110 112 126 144 156 163 168 171 175 182 185 188 195 201 202 204 207 209 211 215 218 220 221 222 225 228 229 232 235 236 236 234 233 237 244 249 253 255
178 189 177 163 155 180 204 222 166 146 157 186 177 162 180 170 183 197 179 206 216 105 90 197 236 231 219 89 235 250 301 348 254 262 271 267 271 283 298 296 286 294 332 329 309 306 318 29 107 125 137 153 161 164 168 171 174 179 182 185 189 195 199 202 206 209 213 218 221 224 226 227 228 230 232 233 236 237 235 237 244 249 251 252 256 259
183 205 67 59 271 173 182 291 347 101 124 179 2 68 201 185 130 126 65 72 106 75 154 193 246 250 272 291 266 253 287 264 239 247 256 261 266 277 287 280 271 304 7 289 284 303 310 335 77 118 136 153 163 165 167 171 172 175 178 182 185 190 196 199 204 209 215 221 226 229 233 235 237 239 240 240 241 242 242 246 252 254 255 255 258 260
166 134 9 359 136 51 0 310 331 96 145 147 158 178 197 58 99 116 108 51 359 257 196 173 251 270 297 282 279 61 265 240 215 221 226 262 283 277 266 260 266 329 304 240 231 249 293 342 87 131 146 153 159 162 164 167 169 173 175 177 180 187 192 197 203 209 214 221 227 232 236 239 243 246 249 250 251 253 253 253 252 251 253 256 258 260
165 118 14 341 104 60 330 241 42 11 95 145 173 168 141 65 63 129 167 101 141 243 215 167 246 268 234 248 336 10 236 213 212 228 232 268 263 235 237 244 332 299 265 236 169 156 192 51 84 135 158 160 156 156 158 160 166 173 175 177 180 187 191 195 203 209 216 224 230 235 239 243 248 252 255 257 260 263 263 262 259 257 257 258 259 261
136 114 65 342 61 60 335 206 138 78 28 309 193 142 127 186 200 176 182 170 183 229 248 198 251 270 213 212 290 275 206 206 213 200 197 213 206 202 211 30 319 268 232 104 93 96 81 62 67 113 147 160 160 158 156 157 164 170 174 179 182 185 189 193 201 208 216 225 231 237 241 245 250 254 258 261 263 266 266 266 266 265 265 265 264 263
106 147 137 69 330 351 327 233 187 162 98 52 139 139 7 282 203 178 164 181 201 211 243 246 242 237 214 210 221 204 180 168 175 165 185 202 192 189 187 125 225 173 86 71 65 62 60 57 60 98 134 150 157 159 158 159 163 167 174 181 185 188 192 197 204 211 220 227 232 237 240 242 246 249 254 258 261 264 265 266 268 268 270 271 268 266
119 206 145 108 341 216 187 219 208 179 145 147 167 171 175 106 53 201 121 59 225 194 197 239 248 239 219 204 209 205 177 164 164 142 177 202 197 187 205 210 182 115 79 63 58 54 50 57 64 87 116 133 143 151 155 159 163 168 175 182 188 195 199 205 213 219 225 231 234 236 237 238 241 244 249 253 257 262 266 269 271 273 273 272 271 269
149 131 134 135 177 194 185 349 300 281 119 166 190 184 176 144 132 185 192 129 20 216 177 208 261 268 230 185 211 215 198 197 196 167 188 198 189 177 181 196 173 116 95 73 47 30 28 41 54 71 101 115 124 134 144 152 158 165 174 182 188 195 200 207 214 219 223 229 233 235 235 234 236 240 246 252 258 264 268 272 275 277 276 274 272 271
81 97 112 126 178 220 327 8 198 273 310 299 266 207 170 162 171 197 207 179 136 129 106 102 281 285 51 122 230 262 281 272 281 272 242 201 176 167 163 173 172 132 118 109 263 216 215 246 75 86 109 114 114 117 122 130 139 150 161 173 180 184 193 200 206 213 219 226 234 235 234 238 242 248 255 262 268 271 273 275 277 278 277 276 275 273
97 107 112 97 81 359 326 211 143 140 247 242 238 199 182 199 188 185 199 157 146 160 153 160 248 261 141 100 226 247 276 279 270 253 248 231 172 168 169 168 160 146 176 221 231 206 213 176 64 60 60 70 81 76 71 81 96 109 120 129 143 159 178 196 205 212 219 227 236 237 241 253 262 267 271 273 275 276 277 277 276 276 276 276 276 275
182 151 129 113 118 139 211 206 187 189 212 224 209 158 162 117 89 90 117 118 194 198 174 199 243 246 201 46 177 192 262 272 262 232 221 222 193 182 179 163 148 169 211 191 5 355 20 29 23 22 27 31 33 36 36 40 50 60 75 90 100 129 184 217 221 225 230 237 245 251 257 264 268 272 274 276 278 278 277 277 275 274 274 275 275 275
182 173 155 158 166 172 189 200 201 191 185 199 164 152 177 166 151 162 150 154 217 194 160 210 236 233 38 313 208 175 213 241 233 203 207 234 227 204 185 163 169 216 216 174 353 350 17 24 12 13 21 23 14 14 13 357 346 353 349 303 280 270 258 256 248 242 244 249 257 263 265 266 267 271 275 278 280 280 278 277 276 274 274 275 274 272
143 180 191 197 195 192 200 204 191 149 140 185 194 178 183 185 174 157 131 177 201 151 169 225 232 215 156 220 214 204 199 212 207 183 195 221 226 223 204 186 224 242 222 207 219 346 5 353 6 13 18 28 5 346 328 310 298 295 294 270 264 275 272 268 261 252 250 250 252 257 258 262 267 271 277 279 279 281 280 281 281 279 278 277 275 276
111 197 207 214 222 220 211 200 170 153 172 197 194 176 173 177 167 173 200 204 150 117 224 235 228 226 221 202 209 207 184 199 211 196 196 204 207 205 188 209 253 254 251 245 189 109 29 326 332 5 13 177 296 300 293 295 294 287 280 266 261 267 265 264 260 251 252 245 234 237 246 257 271 276 282 286 285 290 294 295 295 293 290 288 287 288
145 206 203 203 226 234 156 105 169 182 195 200 186 176 172 169 170 189 212 208 157 175 238 237 217 218 211 188 211 217 187 196 204 192 196 209 212 202 182 210 240 239 247 262 267 79 107 245 291 304 244 227 264 290 292 290 290 285 277 269 261 257 253 250 242 216 190 181 175 177 188 175 54 53 32 2 353 343 335 327 320 312 308 303 299 297
171 200 178 183 222 230 128 105 190 189 185 185 185 183 175 173 183 196 211 212 192 211 239 234 209 222 204 181 209 218 178 187 161 70 265 229 223 207 189 210 227 223 225 229 250 249 205 194 239 262 248 244 261 279 284 283 278 266 258 253 239 230 216 192 156 132 126 120 114 103 91 82 73 68 56 39 24 10 359 349 339 332 326 317 307 302
213 197 141 151 216 226 138 111 149 175 183 178 156 171 174 181 196 207 217 217 207 226 242 238 250 257 212 182 213 214 106 98 192 238 234 231 235 221 205 216 220 224 231 190 183 203 194 170 184 228 237 242 245 254 262 262 239 193 181 186 179 161 145 134 121 115 111 101 91 82 74 67 60 51 40 30 20 10 2 354 347 342 335 330 322 314
192 189 102 131 204 223 158 140 130 95 102 141 151 179 182 185 199 210 217 213 205 221 235 237 254 255 186 158 207 240 177 177 216 230 232 234 232 221 223 235 233 232 233 199 184 187 154 120 144 187 171 176 194 203 209 194 165 151 146 143 137 127 119 114 109 105 96 86 78 69 61 54 48 40 30 21 13 6 360 354 350 347 341 335 331 324
169 166 131 168 200 217 63 144 138 108 113 217 212 195 187 193 204 207 214 217 211 214 219 221 231 218 139 146 182 216 224 219 224 229 232 234 228 212 215 230 235 240 245 249 4 39 64 82 124 141 129 130 141 148 147 142 137 131 124 117 112 108 106 103 99 95 85 76 67 57 49 42 36 30 21 13 7 2 357 352 348 345 340 335 329 324
169 173 162 179 198 201 90 132 131 155 220 229 217 193 189 195 201 201 213 217 209 213 225 238 241 137 133 163 177 186 209 217 222 231 241 252 246 242 246 244 251 280 2 33 24 40 58 89 113 111 113 115 117 120 119 115 113 110 107 106 104 101 100 96 90 83 73 62 53 42 35 28 23 18 10 4 359 354 350 346 343 340 335 329 324 322
168 174 171 173 174 124 121 147 164 212 229 231 244 194 189 192 192 198 219 220 207 209 226 245 252 208 174 183 182 187 207 213 223 253 270 281 250 257 271 279 299 320 77 88 90 90 90 105 103 96 96 99 100 103 103 100 102 102 101 102 99 94 89 84 76 66 55 45 36 27 20 13 8 4 358 353 350 347 344 341 339 336 332 327 323 322
167 166 146 127 137 121 139 181 199 232 246 216 341 284 178 185 187 199 228 230 210 207 217 232 241 229 195 182 188 206 212 206 293 271 247 278 338 268 273 281 4 65 84 89 95 104 104 101 98 94 90 89 89 89 91 94 97 99 97 94 89 82 74 66 56 45 35 28 22 15 9 3 358 354 351 348 345 343 341 339 338 336 332 327 323 321
166 164 160 177 189 152 166 200 229 326 301 222 220 200 174 177 173 184 224 238 209 201 209 222 234 235 209 175 172 190 90 48 287 250 204 120 38 62 31 44 72 80 83 86 92 98 101 100 98 95 90 85 82 82 86 91 94 95 93 85 75 66 58 48 38 30 22 18 13 8 3 357 353 349 346 344 342 339 338 337 335 334 331 326 323 321
164 173 177 191 200 134 156 203 221 260 249 231 190 157 179 181 171 175 204 240 215 197 201 213 226 231 215 173 151 143 121 180 251 244 162 115 112 102 88 76 78 81 84 90 96 97 98 99 97 94 89 84 79 78 83 86 88 89 83 72 60 52 44 34 26 18 13 9 5 2 359 354 350 346 342 340 338 336 334 333 332 331 329 325 321 319
106 78 157 189 194 153 175 202 196 217 242 230 146 159 177 164 146 146 192 251 228 191 194 209 219 227 219 189 155 146 151 204 237 231 133 124 122 109 107 98 85 82 84 90 98 98 97 97 95 92 87 80 73 73 78 80 80 79 70 58 48 40 33 24 16 9 4 2 359 356 354 351 347 344 340 337 335 332 330 329 328 327 325 322 319 317
122 132 181 198 198 177 192 215 220 232 253 209 168 176 157 139 127 131 205 252 218 170 185 197 206 224 223 192 156 162 186 218 234 173 125 124 112 98 102 103 96 92 87 88 94 99 99 98 92 85 77 70 66 68 72 71 70 67 58 47 38 32 24 14 7 2 359 356 354 352 350 347 344 342 339 335 332 330 328 327 325 324 323 321 319 317
153 171 196 206 203 188 194 216 249 255 240 205 199 178 143 140 144 174 216 247 154 163 185 188 198 216 210 171 161 186 202 190 97 113 120 118 109 98 93 93 92 88 85 89 96 99 96 92 86 79 72 66 63 64 63 62 61 58 49 39 32 24 14 5 0 358 355 353 351 350 348 345 343 341 338 334 331 327 326 326 324 322 322 321 318 316
178 180 194 203 201 188 187 214 260 267 236 134 122 147 158 159 181 206 206 49 85 158 134 194 206 207 170 159 174 171 123 98 103 115 117 113 111 109 104 100 94 87 85 90 96 98 96 89 83 77 69 63 62 60 57 57 58 55 46 37 28 15 5 0 356 354 352 351 349 347 345 344 343 340 336 334 331 326 325 326 324 322 322 321 319 316
172 168 183 194 185 156 168 204 236 259 202 124 117 136 211 204 206 195 129 66 38 130 90 176 220 171 143 155 134 113 118 118 114 112 110 107 105 104 103 100 94 88 81 77 81 91 94 89 82 74 64 58 57 55 52 53 54 53 46 35 19 6 1 358 354 352 351 348 347 346 343 342 342 340 337 335 332 328 326 327 325 323 323 322 320 317
173 173 185 198 186 168 187 207 217 218 168 140 131 158 212 220 42 149 141 115 153 176 163 157 141 159 160 134 119 124 126 121 117 116 112 108 104 101 98 91 87 87 80 71 72 83 88 87 86 76 62 53 50 49 46 46 48 47 40 25 8 360 358 355 352 351 349 346 345 343 340 339 339 337 336 335 332 329 328 327 325 323 322 322 320 317
194 186 178 186 190 188 202 216 218 137 149 153 51 259 256 333 5 191 159 119 154 185 183 153 143 149 138 124 122 127 124 120 122 119 112 110 107 103 99 90 82 81 79 71 69 77 83 84 85 80 64 52 48 47 42 40 41 40 28 11 359 357 356 352 351 351 349 346 345 342 339 337 336 335 335 334 332 330 328 326 324 322 321 320 319 316
226 170 128 155 172 226 257 223 181 125 162 159 65 274 280 323 317 219 199 151 163 166 158 152 148 143 139 133 124 120 124 127 122 113 111 115 110 101 100 95 80 73 73 67 61 68 79 81 80 80 68 52 44 43 40 35 33 29 16 1 355 355 353 350 350 350 347 345 344 342 340 337 335 334 334 332 331 328 324 322 319 318 319 319 319 316
285 157 114 133 157 188 223 206 143 124 214 193 152 232 240 271 311 291 274 210 125 129 129 132 134 135 138 137 128 127 134 134 126 126 125 117 112 109 103 95 83 72 67 61 58 63 73 75 70 70 69 56 39 34 35 32 23 12 4 356 353 352 351 350 351 349 348 346 344 342 340 338 336 334 332 331 330 325 321 319 316 314 315 316 316 315
203 157 143 175 177 188 225 234 76 106 244 232 227 229 206 181 118 36 37 88 103 106 106 106 121 133 137 135 130 129 134 137 134 135 132 122 122 120 107 100 95 85 72 64 65 66 68 69 63 59 65 59 34 22 25 25 12 358 355 355 353 351 350 350 350 349 348 347 345 343 341 339 337 335 333 331 329 325 321 319 316 313 309 308 309 308
143 152 169 182 172 214 289 273 155 225 229 217 223 223 196 168 139 106 100 112 112 111 106 90 77 101 123 132 132 126 128 138 140 134 132 132 129 123 118 114 107 95 82 72 68 68 70 67 55 51 61 53 24 13 16 17 8 355 353 354 352 351 350 347 346 347 346 346 345 343 340 339 337 335 333 330 327 323 319 316 314 311 309 308 309 307
151 167 168 153 162 219 237 194 170 197 221 210 207 197 176 161 148 136 140 147 142 139 131 113 85 64 90 118 133 130 128 137 143 136 130 128 125 125 127 124 114 105 94 81 73 72 73 64 49 52 62 37 9 7 11 11 4 356 353 353 351 351 350 347 345 345 346 345 344 343 340 338 336 334 332 330 327 323 319 317 315 312 309 309 311 311
187 181 168 173 198 224 217 179 177 208 244 224 180 173 169 166 161 159 164 165 160 162 154 135 126 122 114 107 119 130 132 139 145 138 125 121 126 125 122 123 123 117 101 88 78 70 63 52 42 49 56 21 1 3 9 9 2 354 352 353 354 353 352 351 349 347 345 345 344 343 341 338 335 333 330 328 324 320 317 317 317 315 313 313 314 313